Weather Roundup
Issued by NWS Corpus Christi, TX

Home | Current Version | Previous Version | Text Only | Print | Product List | Glossary On
Versions: 1 2 3 4 5 6 7 8 9 10 11 12 13 14 15 16 17 18 19 20 21 22 23 24 25 26 27 28 29 30 31 32 33 34 35 36 37 38 39 40 41 42 43 44 45 46 47 48 49 50
000
ASUS44 KCRP 282310
HRRCRP

SOUTH TEXAS REGIONAL WEATHER ROUNDUP
NATIONAL WEATHER SERVICE CORPUS CHRISTI TX
500 PM CST WED JAN 28 2015


TXZ229>244-290000-
...CORPUS CHRISTI AREA OBSERVATIONS...

CITY           SKY/WX    TMP DP  RH WIND       PRES   REMARKS
CORPUS CHRISTI PTSUNNY   71  58  63 SE21      30.11S
NAS CORPUS CHR PTSUNNY   68  62  81 S16       30.12F
ROCKPORT       PTSUNNY   67  61  81 SE13      30.12F
KINGSVILLE NAS PTSUNNY   74  63  68 SE12      30.10S
ALICE          MOSUNNY   79  50  36 SE17G35   30.08S
FALFURRIAS     PTSUNNY   78  47  33 SE12G17   30.09S
$$

...VICTORIA AREA OBSERVATIONS...

CITY           SKY/WX    TMP DP  RH WIND       PRES   REMARKS
VICTORIA       SUNNY     74  45  35 S17       30.12R
BEEVILLE       FAIR      77  53  42 SE13      30.10S
PLEASANTON     SUNNY     80  35  19 SE14      30.07F
SAN ANTONIO    MOSUNNY   78  38  23 S10       30.09R
$$

...LAREDO AREA OBSERVATIONS...

CITY           SKY/WX    TMP DP  RH WIND       PRES   REMARKS
LAREDO         SUNNY     81  37  21 S15       30.07F
COTULLA        SUNNY     83  34  17 S13       30.04F
DEL RIO        SUNNY     81  37  20 SE15      30.01F
MCALLEN        PTSUNNY   75  50  41 SE18      30.10S
HEBBRONVILLE   PTSUNNY   77  41  27 SE14      30.09F
$$

...OTHER TEXAS OBSERVATIONS...

CITY           SKY/WX    TMP DP  RH WIND       PRES   REMARKS
BROWNSVILLE    MOSUNNY   71  61  70 SE14      30.14R
HOUSTON        MOSUNNY   72  48  42 SE14      30.11R
COL. STATION   SUNNY     77  40  26 S12       30.09S
AUSTIN         MOSUNNY   77  41  27 S14       30.07S
WACO           MOSUNNY   75  43  31 S16       30.03R
FORT WORTH     CLOUDY    77  41  27 S17       29.98S
WICHITA FALLS  MOSUNNY   78  45  30 SW18G25   29.91S
LUBBOCK        MOSUNNY   74  32  21 W15G25    30.01S
EL PASO        MOSUNNY   71  38  29 S5        30.10F
$$

...MARINE OBSERVATIONS...

STATION/POSITION TIME  SKY/WX   TEMP    WIND        PRES    VSBY  WAVE   SWELL
                                AIR SEA DIR/SP/G                  HT/PER HT/PER
                 (UTC)          (F)     (DEG/KT/KT) (MB)    (MI)  (FT/S) (FT/S)
PORT ARANSAS     2300            63 61  140/ 10/ 11 1021.0F
BUOY 90 E PORT A 2300            69 70  150/  8/ 10 1021.6F         1/ 4
BUOY 45 SE BAFFI 2300            69 70  160/ 12/ 14 1020.5F         1
BUOY 200 E PT IS 2300            71 74   90/  4/  4 1022.0F         1/ 4
BUOY 15 E GALVES 2300            60 58  140/ 10/ 12 1020.6F         1
$$


USA.gov is the U.S. government's official web portal to all federal, state and local government web resources and services.